Torna al catalogo

DELTA 1 DEB

AttivoPO
NORAD 21598·DEBRIS·🇺🇸 United States

Lanciato Jun 12, 1975 da Vandenberg Space Force Base

Loading…

Prossimi Passaggi (prossime 24 ore)

TLE

AggiornatoSource: Space-Track

Epoca: Sep 14, 2026, 09:22 UTC

1 21598U 75052HS  26257.39090906  .00000102  00000-0  44584-3 0  9993
2 21598  99.5726 231.8043 0349422 272.6743 247.1116 12.84376076655452

Traccia DELTA 1 DEB in tempo reale con AllMySat

Download on the App Store